Location: Kra?nica
(53.4833°N, 14.6167°E)
Time: 09:53:22
(UTC+00:00)

JY1SAT - Visible Passes

Search period start: 06 October 2024 00:00
Search period end: 16 October 2024 00:00
Orbit: 527 x 538 km, 97.5° (Epoch: 05 October)

Date Brightness Start Highest point End Pass type
(mag) Time Alt. Az. Time Alt. Az. Time Alt. Az.
06 Oct ? 18:48:04 20° NNE 18:48:04 20° NNE 18:49:46 10° N visible
06 Oct ? 20:23:26 17° NW 20:23:26 17° NW 20:24:29 10° NNW visible
07 Oct ? 18:38:29 17° NNE 18:38:29 17° NNE 18:39:58 10° NNE visible
07 Oct ? 20:13:50 18° NNW 20:13:50 18° NNW 20:14:55 10° NNW visible
08 Oct ? 18:28:50 15° NNE 18:28:50 15° NNE 18:30:04 10° NNE visible
08 Oct ? 20:04:11 18° NNW 20:04:11 18° NNW 20:05:18 10° NNW visible
09 Oct ? 18:19:08 13° NE 18:19:08 13° NE 18:20:02 10° NNE visible
09 Oct ? 19:54:29 18° NNW 19:54:29 18° NNW 19:55:34 10° NNW visible
10 Oct ? 18:09:22 11° NE 18:09:22 11° NE 18:09:49 10° NNE visible
10 Oct ? 19:44:42 18° NNW 19:44:42 18° NNW 19:45:46 10° NNW visible
11 Oct ? 19:34:52 17° N 19:34:52 17° N 19:35:52 10° N visible
12 Oct ? 19:24:58 16° N 19:24:58 16° N 19:25:53 10° N visible
13 Oct ? 19:15:00 15° N 19:15:00 15° N 19:15:50 10° N visible
14 Oct ? 19:04:59 14° N 19:04:59 14° N 19:05:40 10° N visible
15 Oct ? 18:54:53 13° N 18:54:53 13° N 18:55:26 10° N visible
